小惑星ファエトン

(3200) Phaethon (2009)

English version
Home page
Updated on November 7, 2009

---------------------------------------------------------------------

・ プロフィール

・ 写真集

・ 軌道要素

The following orbital elements are taken from MPO104057

Epoch 2009 June 18.0 TT = JDT 2455000.5                 MPC
M 358.41706              (2000.0)            P               Q
n   0.68762722     Peri.  322.01278     -0.63131112     +0.67810298
a   1.2712589      Node   265.39971     -0.58641050     -0.73494491
e   0.8899049      Incl.   22.18164     -0.50751256     +0.00568549
P   1.43           H   14.6           G   0.15           U   0
From 1515 observations at 20 oppositions, 1983-2006, mean residual 0".54.

・ 星図

・ 光度変化

        H = 14.3  G = 0.15

---------------------------------------------------------------------

軌道要素はMPCのEphemerides and Orbital Elementsに掲載されたものです。
星図はステラナビゲータ Ver.8 (アストロアーツ) で作成したものです。
光度グラフはComet for Windowsで作成したものです。

---------------------------------------------------------------------

Copyright(C) Seiichi Yoshida (comet@aerith.net). All rights reserved.